Weather in Dzhvari

Georgia     42°43′08″N   42°02′44″E
temp.,
°C
wind,
m/s
gust,
m/s
humid.,
%
clouds,
%
prec.,
mm/h
press.,
hPa
HPBL,
m
8 may, sat
sat801:00+8ne32811 0.0 102029
04:00+9nne447241 0.0 101848
07:00+10nne456950 0.0 101768
10:00+18sse114157 0.0 1015721
13:00+20s224295 0.0 1014971
16:00+21s223778 0.0 10131050
19:00+18ese11565 0.0 101322
22:00+15nne4445100 0.0 101439
9 may, sun
sun901:00+12n335096 0.1 101527
04:00+12nne2183100 1.4 101523
07:00+10ne458898 3.3 1014148
10:00+13wsw2378100 3.4 1013391
13:00+10sse1294100 14.8 1016205
16:00+9sw34100100 27.8 1018352
19:00+6sw46100100 13.9 1022545
22:00+4wsw1298100 21.7 1025207
10 may, mon
mon1001:00+4wnw1295100 2.1 1024155
04:00+2nne2293100 2.3 102650
07:00+3ene019298 1.0 1026110
10:00+5sw339176 3.4 1025609
13:00+6sw348340 3.2 10251007
16:00+6sw338026 5.9 1025895
19:00+5sw127517 0.6 1025665
22:00+2nne228732 0.6 102642
11 may, tue
tue1101:00+1nne338172 0.0 102542
04:000nne337854 0.0 102541
07:00+2nne337673 0.0 102574
10:00+7s1255100 0.0 1022994
13:00+9sw3252100 0.0 10201271
16:00+11sw325388 0.0 10181217
19:00+9sw127578 0.0 1018238
22:00+5ne22849 0.0 101923
12 may, wed
wed1201:00+4nne33723 0.0 101939
04:00+4nne44574 0.0 101751
07:00+6nne34573 0.0 101656
10:00+14ssw21504 0.0 1013424
13:00+17sw31540 0.1 1013577
16:00+18sw22520 0.1 1012748
19:00+14sw22770 0.0 1013110
22:00+9nne22830 0.0 101521